Barksdale AFB, LA

9:54 PM CDT on September 20, 2017 (GMT -0500)
Barksdale Air Force Base

Weather History for KBAD - October, 2013

Change the Weather History Date:

Tuesday, October 1, 2013

  Actual Average Record
Temperature  
Mean Temperature 78 °F -  
Max Temperature 88 °F 78 °F 90 °F (2007)
Min Temperature 70 °F 57 °F 49 °F (2011)
Cooling Degree Days 13    
Growing Degree Days 28 (Base 50)    
Moisture  
Dew Point 71 °F    
Average Humidity 86    
Maximum Humidity 100    
Minimum Humidity 59    
Precipitation  
Precipitation 0.49 in - - ()
Sea Level Pressure  
Sea Level Pressure 29.96 in    
Wind  
Wind Speed 8 mph (SE)    
Max Wind Speed 24 mph    
Max Gust Speed 30 mph    
Visibility 9 miles    
Events Rain , Thunderstorm    
Averages and records for this station are not official NWS values.
T = Trace of Precipitation, MM = Missing Value Source: NWS Daily Summary

Daily Weather History Graph

Daily Weather History Graph

Search for Another Location

Airport or City:

Trip Planner

Search our weather history database for the weather conditions in past years. The results will help you decide how hot, cold, wet, or windy it might be!

Date:

Astronomy

Oct. 01, 2013 Rise Set
Actual Time 7:08 AM CDT 6:58 PM CDT
Civil Twilight 6:44 AM CDT 7:23 PM CDT
Nautical Twilight 6:15 AM CDT 7:51 PM CDT
Astronomical Twilight 5:47 AM CDT 8:20 PM CDT
Moon 3:53 AM CDT (10/1) 4:55 PM CDT (10/1)
Length of Visible Light 12h 39m
Length of Day
11h 50m
Waning Crescent, 12% of the Moon is Illuminated
Oct 1
Waning Crescent
Oct 4
New
Oct 11
First Quarter
Oct 18
Full
Oct 26
Last Quarter

Hourly Weather History & Observations

Time (CDT) Temp. Heat Index Dew Point Humidity Pressure Visibility Wind Dir Wind Speed Gust Speed Precip Events Conditions
12:58 AM 70.9 °F - 70.0 °F 97% 29.91 in 10.0 mi SE 5.8 mph - N/A   Clear
1:56 AM 71.6 °F - 69.8 °F 94% 29.90 in 10.0 mi SE 4.6 mph - N/A   Partly Cloudy
1:58 AM 71.6 °F - 69.8 °F 94% 29.91 in 10.0 mi SE 4.6 mph - N/A   Partly Cloudy
2:18 AM 71.6 °F - 69.8 °F 94% 29.91 in 10.0 mi SE 4.6 mph - N/A   Mostly Cloudy
2:28 AM 71.6 °F - 71.6 °F 100% 29.91 in 10.0 mi SE 5.8 mph - N/A   Overcast
2:58 AM 72.1 °F - 71.2 °F 97% 29.92 in 10.0 mi South 9.2 mph - N/A   Overcast
3:58 AM 72.5 °F - 70.7 °F 94% 29.92 in 10.0 mi South 9.2 mph - N/A   Overcast
4:36 AM 73.4 °F - 69.8 °F 88% 29.92 in 10.0 mi South 8.1 mph - N/A   Overcast
4:56 AM 73.4 °F - 71.6 °F 94% 29.92 in 10.0 mi South 5.8 mph - N/A   Overcast
4:58 AM 73.4 °F - 69.8 °F 88% 29.92 in 10.0 mi South 6.9 mph - N/A   Overcast
5:58 AM 72.9 °F - 71.1 °F 94% 29.95 in 10.0 mi SSE 10.4 mph - N/A   Overcast
6:52 AM 73.4 °F - 71.6 °F 94% 29.95 in 8.0 mi SE 6.9 mph - N/A   Overcast
6:58 AM 72.9 °F - 71.2 °F 95% 29.97 in 8.0 mi SSE 6.9 mph - N/A   Overcast
7:08 AM 73.4 °F - 71.6 °F 94% 29.96 in 8.0 mi SSE 8.1 mph - N/A   Overcast
7:58 AM 73.6 °F - 71.8 °F 94% 29.98 in 10.0 mi SSE 6.9 mph - N/A   Overcast
8:48 AM 75.2 °F - 71.6 °F 89% 29.98 in 10.0 mi SSE 10.4 mph - N/A   Overcast
8:58 AM 74.7 °F - 71.6 °F 90% 30.00 in 10.0 mi SSE 9.2 mph - N/A   Overcast
9:58 AM 75.7 °F - 71.8 °F 87% 30.00 in 10.0 mi SSE 6.9 mph - N/A   Overcast
10:58 AM 77.7 °F - 71.8 °F 82% 30.00 in 10.0 mi SSE 6.9 mph - N/A   Overcast
11:18 AM 78.8 °F - 71.6 °F 78% 29.99 in 10.0 mi SE 10.4 mph - N/A   Overcast
11:28 AM 78.8 °F - 71.6 °F 78% 29.99 in 10.0 mi South 9.2 mph - N/A   Overcast
11:58 AM 80.1 °F 83.8 °F 72.0 °F 76% 30.00 in 10.0 mi SE 5.8 mph - N/A   Overcast
12:58 PM 82.9 °F 88.3 °F 72.3 °F 70% 29.98 in 10.0 mi SE 9.2 mph - N/A   Mostly Cloudy
1:08 PM 84.2 °F 89.6 °F 71.6 °F 66% 29.97 in 10.0 mi SSE 12.7 mph - N/A   Scattered Clouds
1:58 PM 83.5 °F 88.5 °F 71.4 °F 67% 29.97 in 10.0 mi SE 11.5 mph - N/A   Mostly Cloudy
2:08 PM 84.2 °F 89.6 °F 71.6 °F 66% 29.95 in 10.0 mi ESE 10.4 mph - N/A   Mostly Cloudy
2:58 PM 85.8 °F 90.4 °F 70.0 °F 59% 29.95 in 10.0 mi SSE 9.2 mph - N/A   Scattered Clouds
3:58 PM 86.0 °F 90.7 °F 70.2 °F 59% 29.93 in 10.0 mi ESE 6.9 mph - N/A   Scattered Clouds
4:58 PM 84.4 °F 89.4 °F 71.1 °F 64% 29.93 in 10.0 mi ESE 4.6 mph - N/A   Partly Cloudy
5:58 PM 82.9 °F 88.0 °F 71.8 °F 69% 29.93 in 10.0 mi ENE 3.5 mph - N/A Thunderstorm Scattered Clouds
6:32 PM 82.4 °F 88.2 °F 73.4 °F 74% 29.94 in 10.0 mi SSE 17.3 mph 29.9 mph N/A Thunderstorm Thunderstorm
6:33 PM 82.4 °F 87.2 °F 71.6 °F 70% 29.93 in 10.0 mi SSE 24.2 mph 29.9 mph N/A Thunderstorm Thunderstorm
6:36 PM 80.6 °F 83.2 °F 68.0 °F 65% 29.94 in 10.0 mi South 21.9 mph 29.9 mph N/A Rain , Thunderstorm Light Thunderstorms and Rain
6:52 PM 75.2 °F - 68.0 °F 78% 29.95 in 4.0 mi SE 15.0 mph - N/A Rain , Thunderstorm Light Thunderstorms and Rain
6:58 PM 74.5 °F - 68.7 °F 82% 29.95 in 3.0 mi SE 11.5 mph - 0.00 in Rain , Thunderstorm Light Thunderstorms and Rain
7:28 PM 71.6 °F - 69.8 °F 94% 29.97 in 1.8 mi ESE 15.0 mph - N/A Rain , Thunderstorm Heavy Thunderstorms and Rain
7:38 PM 71.6 °F - 69.8 °F 94% 29.97 in 2.5 mi East 6.9 mph - N/A Rain , Thunderstorm Thunderstorms and Rain
7:48 PM 71.6 °F - 69.8 °F 94% 29.96 in 4.0 mi ENE 4.6 mph - N/A Rain , Thunderstorm Thunderstorms and Rain
7:58 PM 71.6 °F - 69.8 °F 94% 29.98 in 7.0 mi East 8.1 mph - 0.48 in Rain , Thunderstorm Light Rain
8:08 PM 71.6 °F - 69.8 °F 94% 29.98 in 10.0 mi East 2.3 mph - N/A Rain Light Rain
8:17 PM 71.6 °F - 71.6 °F 100% 29.97 in 10.0 mi East 1.2 mph - N/A   Scattered Clouds
8:58 PM 72.0 °F - 71.1 °F 97% 29.98 in 10.0 mi ESE 6.9 mph - 0.01 in   Scattered Clouds
9:06 PM 71.6 °F - 69.8 °F 94% 29.98 in 10.0 mi East 6.9 mph - N/A Rain Light Rain
9:18 PM 71.6 °F - 69.8 °F 94% 29.98 in 10.0 mi SE 6.9 mph - N/A   Scattered Clouds
9:58 PM 72.1 °F - 70.3 °F 94% 29.98 in 10.0 mi SE 8.1 mph - 0.00 in   Scattered Clouds
10:58 PM 71.8 °F - 70.2 °F 95% 30.00 in 10.0 mi SE 4.6 mph - N/A   Clear
11:58 PM 70.7 °F - 70.2 °F 98% 30.00 in 10.0 mi SSE 4.6 mph - N/A   Clear